Temp
60 60 60 60 60 59 59 60 60 60 60 61 61 61 61 61 61 57 59 72 69 72 75 75 71 70 69 65 66 63 54 48 52 56 65 69 69 78 80 79 78 78 76 78 81
60 60 60 60 60 59 59 59 59 60 60 60 61 61 61 61 57 60 72 73 73 73 73 69 65 67 64 62 64 59 50 54 63 64 65 69 65 70 75 73 74 76 80 82 80
60 60 60 60 60 59 59 59 59 59 60 60 60 60 61 60 59 71 76 74 73 74 74 72 71 67 58 59 60 56 56 60 68 69 65 69 72 72 72 66 73 74 76 77 76
60 60 60 59 59 59 59 59 59 59 60 60 60 60 61 59 57 73 77 74 74 73 75 70 66 58 55 55 61 55 65 66 70 71 65 67 73 74 71 74 79 79 80 77 73
59 59 59 59 59 59 58 58 59 59 59 59 60 60 57 60 67 76 75 75 73 75 72 68 62 58 53 58 61 59 65 68 72 70 67 69 72 71 71 74 76 79 78 77 74
59 59 59 59 59 59 58 58 58 58 59 59 60 61 61 59 76 76 74 74 74 70 71 69 66 68 61 60 60 65 67 69 68 70 66 67 69 70 72 73 74 76 76 77 73
58 58 58 59 59 59 58 58 57 58 59 60 61 64 63 68 77 75 76 71 73 74 71 71 72 67 65 63 66 67 63 66 65 65 65 70 68 69 72 71 70 73 76 75 72
58 58 58 58 59 59 59 59 59 60 60 61 62 60 61 74 72 73 71 73 75 75 75 75 74 66 64 66 66 62 58 53 63 70 71 72 60 73 72 69 69 72 74 75 70
58 58 58 58 58 59 58 58 61 61 62 62 58 59 62 74 75 78 76 75 77 75 74 85 72 64 65 56 53 54 50 53 61 66 67 65 61 72 73 69 69 69 71 73 70
58 57 57 58 58 57 57 59 62 61 63 66 70 60 66 72 77 78 77 78 75 75 71 69 62 57 54 53 44 48 50 51 55 64 65 59 61 67 70 69 69 68 70 70 69
58 57 57 57 57 57 55 57 61 60 60 65 67 66 73 82 82 76 79 77 74 70 59 62 57 51 56 58 59 57 54 53 61 68 61 60 58 66 66 63 62 64 66 65 67
57 57 57 57 57 56 54 62 67 69 60 68 70 70 77 78 72 76 80 70 67 59 60 58 52 62 63 62 60 57 53 55 60 65 61 60 58 64 61 60 59 59 63 64 64
56 57 57 57 56 56 62 68 72 67 58 65 70 70 72 75 69 72 77 71 65 60 59 55 61 68 64 60 59 57 53 55 57 64 62 58 54 58 60 60 59 62 62 65 64
56 57 56 55 60 60 66 71 69 69 48 60 65 71 73 75 69 79 80 73 62 62 59 57 64 64 61 60 60 51 64 62 60 54 48 58 45 50 51 54 54 53 57 57 62
56 57 56 55 57 64 70 66 64 67 40 67 69 82 77 73 73 74 78 72 64 63 61 59 60 60 57 61 64 59 65 61 61 53 47 51 45 46 50 48 49 51 54 54 55
56 56 55 55 51 64 66 64 68 51 42 64 72 71 69 71 72 74 72 74 71 63 61 61 66 65 64 67 65 67 58 54 49 47 41 45 44 42 43 47 49 52 53 54 55
55 55 53 61 64 63 63 64 48 42 65 62 64 69 67 66 68 69 66 62 58 51 50 58 61 64 68 59 60 58 48 40 39 39 38 47 44 41 49 51 50 50 52 52 54
53 53 55 64 61 63 62 55 39 56 60 67 66 66 62 63 63 65 61 57 62 57 50 49 48 60 66 60 56 51 50 41 34 34 38 46 40 42 51 53 54 53 52 53 53
52 53 59 65 66 62 56 43 46 55 63 61 63 57 56 61 60 59 54 56 60 59 53 47 50 62 66 64 61 53 45 48 40 37 34 39 41 48 50 50 52 52 52 51 53
43 49 59 65 64 60 51 45 51 62 63 63 53 57 50 54 54 54 53 60 60 62 57 53 46 58 62 64 61 54 54 44 39 31 26 35 38 40 43 46 48 48 51 51 53
47 54 65 67 62 53 44 46 57 66 62 59 54 52 53 52 53 51 54 59 63 63 58 51 48 50 56 52 50 49 44 41 40 37 32 30 34 45 46 47 47 48 50 50 51
42 50 63 62 52 43 44 51 56 59 61 59 57 55 52 52 50 51 53 58 63 61 54 52 45 42 49 53 57 50 46 42 33 34 33 32 33 49 47 47 48 48 50 49 51
39 41 57 58 42 41 47 53 57 56 56 56 54 55 54 50 46 51 54 62 62 59 52 51 42 35 41 46 50 48 47 43 38 35 32 31 35 48 47 47 48 47 49 50 51
43 42 46 47 45 41 41 45 49 58 56 55 55 55 50 47 50 48 51 59 61 60 62 57 42 41 37 42 46 43 47 44 40 32 35 33 40 43 45 46 46 46 49 49 50
41 38 40 36 41 39 40 44 46 45 52 52 49 48 46 42 45 45 49 51 57 58 54 49 41 43 47 51 50 49 49 44 41 42 38 43 41 48 48 49 49 48 49 49 50
37 35 38 36 39 40 40 40 42 44 46 45 42 46 46 42 43 42 45 44 45 49 46 45 41 44 44 50 51 48 49 49 47 48 42 44 42 49 51 50 48 50 50 50 51
36 38 36 37 36 36 37 40 41 42 46 49 45 43 43 44 48 48 48 48 49 43 42 41 38 35 34 46 44 39 46 49 49 49 47 40 45 45 45 48 48 48 50 51 51
MSLP
1018.02 1017.62 1017.35 1017.07 1016.74 1016.48 1016.24 1016.03 1015.85 1015.65 1015.43 1015.26 1015.09 1014.91 1014.71 1014.42 1014.05 1013.98 1013.19 1010.99 1010.85 1010.89 1010.82 1011.21 1011.47 1011.47 1011.55 1011.83 1012.09 1012.60 1013.71 1014.42 1013.43 1012.34 1011.02 1009.60 1009.66 1008.60 1008.28 1008.21 1008.46 1008.73 1008.70 1008.67 1010.00
1017.91 1017.41 1017.03 1016.72 1016.40 1016.16 1016.00 1015.79 1015.58 1015.36 1015.17 1015.00 1014.82 1014.69 1014.52 1014.33 1014.03 1013.01 1010.43 1010.38 1010.60 1010.88 1011.09 1011.40 1011.63 1011.63 1011.94 1012.05 1012.24 1012.81 1013.87 1013.57 1012.55 1011.43 1010.78 1009.87 1009.59 1009.29 1008.66 1008.36 1008.42 1008.54 1008.50 1009.11 1009.94
1017.80 1017.27 1016.79 1016.40 1016.09 1015.82 1015.64 1015.46 1015.25 1015.05 1014.91 1014.79 1014.63 1014.54 1014.42 1014.33 1013.62 1010.72 1009.45 1010.00 1010.47 1010.87 1011.28 1011.38 1011.46 1011.70 1012.14 1012.16 1012.19 1012.56 1012.87 1012.45 1011.55 1011.11 1010.92 1009.97 1009.11 1008.73 1008.89 1008.73 1008.37 1008.47 1009.00 1009.63 1010.35
1017.67 1017.10 1016.57 1016.13 1015.76 1015.45 1015.25 1015.08 1014.93 1014.80 1014.71 1014.67 1014.55 1014.42 1014.30 1014.14 1012.40 1009.58 1009.30 1009.81 1010.55 1011.04 1011.46 1011.47 1011.64 1011.98 1012.22 1012.25 1012.01 1012.34 1011.69 1011.64 1010.86 1010.28 1010.37 1009.76 1008.88 1008.49 1008.26 1008.04 1007.66 1008.01 1008.72 1009.44 1010.62
1017.57 1017.01 1016.48 1015.97 1015.55 1015.23 1015.02 1014.88 1014.73 1014.63 1014.56 1014.46 1014.37 1014.35 1014.35 1013.46 1011.20 1009.50 1009.33 1010.00 1010.70 1011.02 1011.34 1011.56 1011.83 1012.16 1012.23 1012.11 1011.92 1011.94 1011.27 1011.01 1010.32 1009.96 1009.75 1009.31 1008.77 1008.65 1008.08 1008.03 1007.93 1008.47 1008.92 1009.68 1010.44
1017.63 1017.07 1016.51 1015.98 1015.50 1015.12 1014.88 1014.70 1014.57 1014.44 1014.34 1014.31 1014.34 1014.35 1013.97 1012.34 1009.74 1009.69 1009.78 1010.40 1010.64 1011.00 1011.29 1011.53 1011.69 1011.73 1011.93 1011.87 1011.82 1011.34 1010.97 1010.51 1009.92 1009.47 1009.19 1009.13 1008.65 1008.45 1007.96 1008.33 1008.70 1008.95 1008.86 1009.46 1009.99
1017.68 1017.09 1016.49 1015.99 1015.50 1015.04 1014.74 1014.53 1014.34 1014.22 1014.19 1014.26 1014.28 1014.14 1013.37 1011.02 1009.92 1009.97 1010.06 1010.39 1010.45 1010.74 1011.14 1011.28 1011.34 1011.62 1011.84 1011.82 1011.37 1011.24 1011.14 1010.29 1009.73 1009.38 1009.13 1008.65 1008.53 1008.29 1008.12 1008.68 1009.08 1009.19 1009.20 1009.83 1010.28
1017.66 1017.10 1016.51 1015.93 1015.44 1015.01 1014.64 1014.39 1014.17 1014.05 1014.13 1014.21 1014.20 1013.99 1012.38 1010.16 1010.00 1010.28 1010.19 1010.27 1010.37 1010.62 1010.72 1010.88 1011.22 1011.63 1011.94 1011.66 1011.72 1011.81 1011.64 1011.42 1009.91 1009.16 1008.75 1008.76 1009.07 1008.34 1008.59 1009.09 1009.15 1009.06 1009.27 1009.82 1010.25
1017.61 1017.09 1016.46 1015.86 1015.34 1014.93 1014.67 1014.36 1014.12 1014.08 1014.12 1014.21 1014.20 1013.62 1011.63 1010.10 1010.06 1009.73 1009.81 1009.96 1010.20 1010.50 1010.68 1010.83 1011.24 1011.89 1012.10 1012.69 1013.14 1013.14 1012.67 1012.05 1010.58 1009.68 1009.47 1009.60 1009.83 1008.89 1008.84 1009.27 1009.00 1009.39 1009.17 1009.42 1010.16
1017.41 1016.86 1016.34 1015.69 1015.11 1014.73 1014.40 1014.31 1014.24 1014.16 1014.29 1014.16 1013.66 1013.37 1011.14 1009.70 1009.22 1009.20 1009.49 1009.84 1010.08 1010.29 1010.74 1011.01 1011.78 1012.39 1013.20 1013.54 1014.07 1013.77 1013.37 1012.62 1011.88 1010.12 1009.84 1010.05 1010.04 1009.76 1009.38 1009.90 1009.99 1009.36 1008.83 1009.37 1009.87
1017.10 1016.45 1015.85 1015.33 1014.74 1014.46 1014.35 1014.44 1014.56 1014.18 1013.70 1012.60 1012.01 1011.38 1010.03 1009.06 1008.62 1009.13 1009.31 1009.91 1010.25 1010.60 1011.28 1011.45 1012.30 1012.88 1013.15 1013.40 1013.31 1013.42 1013.36 1013.08 1011.81 1010.42 1010.67 1010.25 1010.48 1010.35 1010.65 1010.24 1010.66 1010.19 1009.27 1009.33 1009.58
1017.08 1016.19 1015.46 1014.86 1014.35 1013.89 1014.00 1013.65 1012.70 1012.47 1012.01 1010.96 1010.56 1010.29 1009.44 1009.21 1009.26 1008.82 1009.24 1010.22 1010.53 1011.21 1011.63 1012.22 1012.32 1012.10 1012.35 1012.68 1013.02 1013.17 1013.16 1012.67 1011.89 1010.31 1010.67 1010.41 1010.80 1011.64 1011.80 1012.73 1012.80 1012.03 1010.76 1010.93 1011.01
1017.09 1016.07 1015.25 1014.41 1014.09 1013.98 1013.50 1012.52 1011.65 1011.70 1011.79 1010.07 1009.58 1009.18 1008.77 1009.06 1009.07 1008.56 1009.05 1009.71 1010.20 1011.18 1011.70 1012.10 1011.54 1011.59 1012.06 1012.15 1012.58 1012.42 1012.69 1012.23 1011.98 1010.73 1010.34 1010.69 1011.43 1012.12 1012.98 1013.39 1012.91 1012.83 1012.17 1012.22 1012.58
1016.87 1016.02 1015.13 1014.26 1014.02 1013.65 1012.89 1011.91 1011.59 1011.52 1011.86 1009.63 1008.64 1007.51 1007.87 1008.08 1008.19 1007.39 1007.94 1008.96 1009.98 1010.63 1011.51 1011.81 1011.04 1011.24 1011.43 1011.67 1011.81 1011.95 1011.19 1011.53 1011.73 1011.84 1011.60 1011.33 1012.65 1013.59 1014.72 1015.18 1014.89 1014.95 1014.60 1014.03 1013.66
1016.53 1015.65 1014.90 1014.54 1014.09 1013.29 1012.45 1011.85 1011.49 1011.64 1011.40 1008.49 1007.39 1006.12 1006.80 1007.53 1007.22 1007.20 1007.14 1008.23 1009.30 1010.23 1011.22 1011.13 1010.85 1010.76 1010.91 1010.82 1010.82 1011.08 1010.74 1011.37 1011.65 1012.15 1012.59 1012.90 1014.09 1014.93 1015.51 1016.22 1016.95 1016.73 1016.31 1015.50 1015.12
1016.10 1015.30 1014.72 1014.35 1014.33 1012.67 1012.09 1011.78 1011.81 1012.34 1010.10 1007.98 1006.84 1006.65 1007.05 1007.14 1007.08 1007.05 1007.48 1007.83 1008.65 1009.93 1010.48 1010.48 1010.05 1010.13 1009.83 1009.75 1010.10 1010.41 1011.05 1011.91 1012.74 1013.42 1014.19 1014.62 1015.55 1016.58 1017.01 1017.66 1018.00 1018.07 1017.46 1016.74 1016.14
1015.57 1014.73 1014.31 1013.89 1013.38 1012.45 1012.05 1012.57 1013.25 1012.22 1009.65 1008.71 1007.83 1007.29 1007.33 1007.51 1007.44 1007.45 1007.91 1008.52 1009.31 1010.26 1010.87 1010.36 1009.99 1009.48 1009.41 1009.76 1010.11 1010.65 1012.18 1013.39 1014.48 1015.13 1015.92 1015.75 1016.37 1017.11 1017.65 1018.23 1018.59 1018.70 1018.26 1017.61 1017.34
1015.35 1014.39 1013.96 1013.26 1012.72 1012.54 1012.81 1013.59 1013.59 1011.86 1010.40 1009.24 1008.60 1008.05 1008.06 1008.28 1008.28 1008.24 1008.41 1009.06 1009.28 1009.91 1010.73 1010.73 1010.11 1009.32 1009.15 1009.47 1010.23 1011.26 1012.47 1014.33 1015.67 1016.85 1017.24 1016.87 1017.29 1017.51 1017.97 1018.49 1018.90 1019.23 1018.95 1018.34 1017.96
1015.42 1014.37 1013.85 1013.29 1012.65 1012.77 1013.79 1014.39 1013.45 1012.43 1011.27 1010.32 1009.46 1009.12 1009.09 1009.25 1009.36 1009.37 1009.54 1009.57 1009.36 1009.62 1010.35 1010.70 1010.24 1009.48 1009.19 1009.47 1010.45 1011.87 1013.17 1014.29 1016.06 1017.78 1018.25 1017.96 1018.31 1018.34 1018.53 1018.80 1018.99 1019.15 1019.04 1018.88 1018.53
1017.36 1016.23 1014.55 1013.29 1012.79 1013.57 1014.62 1014.96 1013.88 1012.87 1011.91 1010.96 1010.74 1010.44 1010.40 1010.50 1010.40 1010.31 1010.07 1009.89 1009.78 1009.88 1010.08 1010.41 1010.64 1010.22 1009.94 1010.18 1011.17 1011.84 1013.59 1015.26 1016.89 1018.35 1019.20 1018.90 1018.63 1018.22 1018.61 1018.90 1019.06 1019.11 1018.96 1018.89 1018.88
1017.82 1016.60 1014.26 1013.34 1013.23 1014.75 1015.79 1015.47 1014.23 1013.17 1012.77 1012.10 1011.58 1011.43 1011.44 1011.43 1011.25 1011.28 1010.85 1010.39 1010.18 1010.05 1010.16 1010.75 1011.38 1011.71 1011.37 1011.41 1012.02 1013.25 1014.50 1016.20 1017.52 1018.60 1019.14 1019.30 1018.55 1016.93 1017.50 1018.07 1018.41 1018.50 1018.60 1018.72 1018.73
1019.95 1018.16 1014.83 1013.75 1015.06 1016.80 1017.11 1016.55 1015.17 1014.26 1013.48 1012.95 1012.53 1012.46 1012.43 1012.35 1012.23 1012.03 1011.46 1010.78 1010.58 1010.55 1010.93 1011.55 1012.40 1012.84 1012.43 1012.21 1012.31 1012.95 1014.23 1015.69 1017.80 1019.13 1019.44 1019.14 1017.31 1016.55 1016.92 1017.31 1017.77 1018.13 1018.47 1018.73 1018.63
1021.87 1019.96 1016.08 1015.47 1017.73 1018.74 1018.20 1017.14 1016.00 1015.32 1014.82 1014.11 1013.78 1013.66 1013.50 1013.43 1013.27 1012.29 1011.66 1010.94 1010.86 1011.07 1011.38 1012.04 1013.20 1013.74 1013.65 1013.47 1012.99 1013.26 1014.34 1015.57 1016.81 1017.99 1018.77 1018.88 1017.30 1016.67 1016.92 1017.33 1017.52 1017.90 1018.22 1018.47 1018.60
1022.49 1021.64 1019.75 1019.40 1020.68 1020.57 1020.09 1018.61 1017.40 1016.39 1015.86 1015.70 1014.96 1014.41 1014.48 1014.18 1013.81 1013.22 1012.59 1011.80 1011.60 1011.63 1011.79 1012.34 1013.53 1013.81 1013.53 1013.37 1013.23 1013.68 1014.25 1015.22 1016.04 1017.68 1017.78 1017.13 1016.64 1016.75 1016.76 1016.81 1017.11 1017.62 1017.96 1018.21 1018.26
1023.71 1024.23 1023.90 1022.91 1022.12 1022.02 1021.30 1020.07 1018.91 1018.17 1017.43 1016.84 1016.32 1016.74 1016.65 1015.81 1015.01 1014.44 1014.06 1013.47 1012.64 1012.59 1012.68 1013.24 1013.80 1013.91 1013.44 1013.08 1013.04 1013.07 1013.53 1014.50 1015.50 1015.75 1016.44 1015.75 1015.79 1015.39 1015.20 1015.44 1015.91 1016.62 1017.34 1017.97 1018.07
1025.68 1025.84 1025.07 1024.35 1023.51 1022.76 1021.88 1021.14 1020.67 1020.10 1019.51 1018.64 1018.50 1018.13 1017.65 1017.25 1017.08 1016.38 1015.55 1015.00 1014.29 1013.87 1013.81 1014.14 1014.12 1014.13 1013.92 1013.40 1013.24 1012.97 1012.93 1013.51 1014.05 1014.52 1014.79 1014.86 1014.74 1014.32 1014.29 1014.73 1015.49 1015.84 1016.78 1017.39 1017.61
1026.80 1026.66 1026.41 1025.07 1024.27 1023.65 1022.72 1022.45 1021.82 1021.48 1020.34 1019.78 1019.74 1019.13 1018.41 1018.10 1017.69 1016.89 1016.06 1015.62 1015.02 1014.95 1015.14 1015.17 1015.07 1015.26 1014.60 1013.99 1013.55 1012.69 1011.82 1012.29 1012.70 1012.97 1013.48 1014.02 1013.90 1014.05 1014.46 1014.57 1014.91 1015.61 1016.10 1016.74 1017.43
Wind_Speed
14 13 12 11 10 10 9 8 7 6 6 7 7 7 8 8 9 1 6 10 6 6 1 5 2 2 2 2 0 4 5 2 3 2 8 7 9 9 4 6 2 3 5 3 18
16 15 14 12 11 10 9 8 8 7 6 6 6 6 6 6 2 6 11 8 8 7 3 3 1 2 3 2 1 6 4 7 7 4 6 8 3 2 4 1 2 2 5 16 19
17 16 15 13 12 10 9 8 8 7 6 5 6 5 5 3 3 7 4 12 11 8 3 4 4 2 3 2 1 3 5 5 7 9 3 8 11 1 8 2 6 8 10 17 19
19 19 17 15 13 11 10 9 8 6 5 5 5 4 4 1 1 0 4 13 8 7 5 3 3 3 1 2 2 0 7 5 9 5 3 5 6 7 3 6 6 11 15 15 17
20 20 19 17 14 12 9 8 7 6 5 5 4 3 2 2 8 4 10 12 7 6 7 4 3 2 1 1 2 4 6 4 9 11 7 4 10 7 5 4 2 6 8 16 15
19 19 19 18 15 12 9 7 6 4 4 5 5 4 1 3 2 5 10 8 6 5 6 5 6 6 3 3 3 3 6 8 7 8 4 4 4 4 3 4 4 7 13 11 14
19 19 18 17 15 13 9 6 4 3 4 5 5 3 2 11 3 5 8 5 5 5 5 4 4 1 4 7 3 4 6 9 3 2 3 6 8 6 3 7 9 12 13 8 10
20 19 19 18 16 13 10 7 4 4 6 6 5 1 7 3 4 5 2 3 3 4 3 3 4 0 4 3 8 6 5 6 6 8 5 8 9 12 3 7 13 15 12 8 11
22 20 19 18 16 14 10 7 5 8 6 7 1 1 8 1 3 6 5 3 5 2 2 3 4 3 5 4 7 7 2 5 12 2 2 4 6 9 6 8 10 10 12 9 13
24 22 20 18 17 12 12 3 6 8 3 3 3 3 4 3 4 6 4 2 1 4 1 3 5 3 4 5 4 3 4 4 6 8 8 4 6 8 7 8 9 10 13 10 12
27 25 23 20 18 12 2 4 4 2 1 7 5 4 5 5 5 4 5 5 2 6 1 3 3 5 8 7 5 3 3 5 12 17 4 7 4 9 9 20 19 15 6 8 10
28 27 26 22 18 6 3 1 4 4 8 11 10 7 6 3 4 1 8 6 5 5 2 5 6 9 5 4 4 5 5 12 9 12 6 8 2 8 13 9 9 15 12 9 10
28 28 26 24 19 2 1 3 6 1 2 8 6 6 6 9 8 8 13 7 5 6 6 7 9 4 3 4 3 6 5 7 9 10 4 3 3 4 6 13 20 17 7 12 12
29 27 25 26 1 3 3 4 8 3 5 8 4 8 5 7 5 10 11 8 2 10 5 5 6 7 5 7 5 6 9 10 7 1 5 3 5 3 6 14 20 20 17 15 14
31 27 22 10 1 2 4 8 5 6 4 1 3 2 6 10 4 5 6 5 10 8 7 10 4 5 4 8 6 10 8 6 5 4 2 8 4 4 5 8 12 14 14 15 17
32 28 18 3 1 5 7 6 6 6 5 3 4 5 5 3 2 3 4 5 4 5 2 8 3 6 9 6 4 5 2 4 4 3 2 4 2 3 4 3 2 6 12 14 16
35 28 7 1 2 5 5 5 6 3 5 5 3 2 5 4 2 5 6 5 7 5 5 5 7 4 5 5 0 6 6 4 5 4 6 4 3 3 4 1 2 6 9 10 13
36 20 2 4 4 5 4 6 2 3 4 3 4 3 5 6 2 5 2 4 5 3 3 5 7 4 4 6 7 2 7 6 4 3 4 6 4 2 2 4 2 4 5 9 12
25 6 3 5 3 3 8 4 6 3 5 6 8 2 2 3 3 4 1 3 4 6 8 6 6 3 3 3 5 4 2 4 7 2 3 3 2 4 2 3 3 4 4 6 9
4 5 4 9 3 6 6 4 3 3 7 3 2 3 2 2 2 5 3 2 3 3 3 5 1 1 2 5 7 3 4 3 3 2 4 3 3 5 7 7 6 7 7 6 5
5 5 4 12 4 7 3 5 4 6 7 4 2 2 2 3 1 2 3 3 5 6 4 2 4 4 2 3 8 1 2 7 5 4 6 3 7 6 11 10 10 8 8 7 6
4 3 5 8 6 2 2 5 7 7 6 5 5 3 2 1 2 3 7 5 4 1 3 1 5 4 7 2 4 3 6 6 7 5 2 2 8 4 9 9 9 9 7 6 7
3 4 6 4 4 4 6 5 3 7 5 5 4 5 3 3 4 6 6 3 4 1 4 4 1 2 8 7 2 4 5 5 6 4 7 6 7 3 5 6 8 9 8 7 7
3 6 6 7 3 3 5 5 6 6 2 7 6 5 3 3 4 5 3 3 7 3 5 6 6 9 10 8 4 3 4 4 6 5 5 7 6 6 10 12 9 7 8 8 7
5 1 1 5 4 3 2 4 5 7 6 7 5 10 8 5 4 3 4 6 5 6 3 5 8 7 6 6 5 7 7 9 8 7 9 8 13 12 14 15 14 12 9 8 8
3 4 6 3 3 4 2 4 6 5 4 5 4 11 9 5 6 6 5 3 5 6 5 3 4 5 4 7 8 8 8 8 13 9 7 7 7 7 6 6 9 14 12 11 10
3 3 3 5 4 2 2 5 7 7 6 3 10 9 7 5 12 14 13 9 8 2 2 3 2 3 7 4 1 11 13 13 7 6 8 7 9 4 3 6 9 11 13 12 8
Wind_Direction
345 339 333 326 321 317 314 311 308 306 301 299 299 301 305 311 300 163 246 219 181 173 115 100 73 322 63 19 61 113 54 115 224 272 269 306 28 334 290 120 60 289 196 188 130
347 341 334 328 321 315 311 308 306 305 301 295 295 302 309 322 292 247 243 204 204 157 91 123 83 56 21 345 22 92 111 207 212 227 270 298 337 19 339 104 302 356 38 125 131
350 345 338 332 324 316 311 306 304 302 294 287 286 293 303 312 302 248 219 195 190 168 93 141 113 80 42 328 203 147 196 180 248 251 247 277 311 197 155 246 213 187 138 136 144
353 350 345 339 331 322 313 307 303 295 285 271 265 281 300 246 130 226 256 173 151 158 153 147 79 80 108 223 236 271 247 208 280 248 205 245 282 295 190 216 217 184 151 144 153
352 352 349 343 337 327 315 303 295 286 268 255 247 247 251 358 253 333 105 130 112 125 164 148 98 92 293 233 201 203 282 268 249 282 241 166 240 240 268 246 167 146 161 155 159
352 349 349 345 341 334 319 299 289 272 249 232 222 214 202 301 227 139 116 129 144 142 160 130 171 196 271 276 157 226 272 279 283 279 246 181 252 209 281 145 209 186 200 173 166
353 349 347 344 341 336 324 314 298 253 198 197 193 257 99 237 17 140 123 164 175 164 143 187 178 99 23 313 265 284 334 328 280 304 285 210 341 302 237 167 199 207 215 145 156
352 349 345 342 341 337 336 328 304 181 158 163 176 278 248 255 111 131 190 201 204 204 205 157 149 170 158 281 3 5 48 359 289 334 347 67 283 292 108 179 224 211 219 174 174
349 348 344 340 337 335 334 329 98 120 132 150 137 74 270 60 150 208 175 210 148 197 302 285 153 165 26 64 9 359 266 316 322 314 331 92 276 290 347 224 243 229 239 184 173
346 345 342 337 332 329 322 209 123 111 149 214 259 348 273 218 189 179 194 233 136 129 15 143 60 75 44 66 236 269 343 308 276 294 11 298 255 290 304 9 319 260 224 200 186
343 342 340 337 330 326 318 99 10 2 232 210 197 249 278 285 127 200 160 115 337 52 161 345 55 238 229 197 204 253 242 254 277 285 196 250 286 292 15 24 7 335 267 224 188
340 338 337 335 332 338 155 140 236 231 299 224 235 247 260 63 346 230 111 156 139 199 157 13 250 235 223 227 221 225 271 281 290 266 152 269 314 65 44 23 358 0 329 360 6
338 335 334 331 328 124 262 239 311 107 318 292 196 212 210 141 206 244 146 180 165 166 185 177 237 87 180 277 255 250 202 254 229 297 275 281 358 64 42 15 11 9 10 39 41
336 334 333 328 73 318 280 315 324 115 44 278 232 257 158 148 248 204 178 146 147 195 185 226 264 228 252 263 168 267 247 237 258 357 260 81 277 18 348 23 25 14 26 42 35
334 334 333 326 254 81 298 330 322 55 356 225 179 164 149 151 209 226 186 78 170 187 122 238 222 221 244 234 177 235 252 233 230 219 56 335 84 248 358 11 16 12 23 43 44
333 334 336 91 303 256 319 322 50 45 254 322 159 175 133 212 243 120 141 68 158 144 278 224 225 173 218 249 197 260 253 62 52 85 35 277 177 308 4 314 6 41 41 50 52
332 332 319 304 198 318 338 47 37 153 315 328 331 188 189 208 223 184 164 166 174 137 238 279 245 249 180 234 116 83 54 342 339 3 234 301 339 225 160 140 135 100 76 59 62
329 326 238 239 294 345 50 54 196 271 304 331 337 340 158 13 56 337 159 210 216 136 151 192 302 216 188 180 192 154 143 153 237 211 266 308 269 257 191 118 142 73 74 75 71
325 336 334 311 276 57 65 78 212 238 303 347 324 333 345 9 70 24 159 226 245 170 194 182 262 290 138 133 115 188 130 170 109 58 81 245 102 306 145 202 171 147 101 85 94
350 341 305 320 13 59 74 234 251 15 322 327 290 19 305 331 49 34 328 285 350 77 165 231 189 324 332 99 38 133 142 80 13 218 252 274 266 229 203 215 200 187 168 158 170
25 24 275 335 64 50 150 237 298 353 25 325 278 298 208 305 8 210 252 303 10 333 70 104 108 273 44 209 175 117 86 54 108 139 195 196 248 210 181 186 198 207 196 189 185
8 5 321 348 52 35 36 313 303 351 358 344 7 26 328 343 268 240 221 216 1 270 295 41 145 196 215 315 252 162 165 140 131 221 227 163 259 217 191 190 189 200 189 198 211
14 277 322 35 63 350 322 306 299 9 320 331 319 59 282 254 264 219 223 220 327 277 186 190 311 51 347 350 308 188 163 124 111 86 191 180 258 206 211 212 213 192 186 202 206
28 352 334 32 35 53 354 296 325 330 274 336 292 319 350 261 244 278 264 304 345 237 241 135 179 173 202 202 168 172 179 156 125 133 201 215 245 217 227 224 209 194 191 199 202
24 16 119 321 345 353 286 282 308 6 349 5 340 20 338 297 296 236 358 330 321 8 89 141 219 195 229 225 195 201 184 172 189 194 190 227 224 237 219 216 214 187 182 193 207
44 16 350 284 303 333 305 4 30 351 311 315 23 326 312 255 339 314 12 342 263 338 9 7 259 173 248 204 219 240 213 203 216 226 251 264 261 224 269 210 170 186 179 196 207
332 348 88 295 337 360 257 15 333 9 285 345 330 313 295 347 306 279 266 246 230 205 303 316 134 99 253 224 312 267 204 210 210 191 183 199 227 152 221 203 186 172 176 190 199